Location: Roland
(31.1349°N, 85.4372°W)
Time: 19:54:33
(UTC+00:00)

SR - Pass Details

Date: 18 April 2021
Orbit: 573 x 882 km, 66.7° (Epoch: 13 May)

Event Time Altitude Azimuth Distance (km) Brightness Sun altitude
Rises 11:24:59 0° 151° (SSE) 3,202 ? 2.3°
Reaches altitude 10° 11:29:22 10° 116° (ESE) 2,365 ? 3.2°
Maximum altitude 11:30:46 11° 101° (E) 2,323 ? 3.5°
Drops below altitude 10° 11:32:11 10° 86° (E) 2,416 ? 3.8°
Sets 11:36:50 0° 52° (NE) 3,420 ? 4.8°
